Location: Rounton
(54.4000°N, 1.3500°W)
Time: 22:08:19
(UTC+00:00)

Vanguard 1 Rocket - Pass Details

Date: 08 December 2021
Orbit: 651 x 4224 km, 34.3° (Epoch: 16 January)

Event Time Altitude Azimuth Distance (km) Brightness Sun altitude
Rises 08:36:41 0° 268° (W) 6,663 11.4 1.7°
Reaches altitude 10° 08:44:05 10° 248° (WSW) 6,331 11.5 2.4°
Maximum altitude 08:53:19 15° 222° (SW) 6,541 11.9 3.3°
Drops below altitude 10° 09:03:58 10° 196° (SSW) 7,358 12.6 4.4°
Sets 09:14:32 0° 178° (S) 8,431 13.3 5.3°
